Regional Weather Roundup
Issued by NWS

Home | Current Version | Previous Version | Graphics & Text | Print | Product List | Glossary On
Versions: 1 2 3 4 5 6 7 8 9 10 11 12 13 14 15 16 17 18 19 20 21 22 23 24 25 26 27 28 29 30 31 32 33 34 35 36 37 38 39 40 41 42 43 44 45 46 47 48 49 50
000
ASUS43 KFSD 011202
RWRSD

WEATHER ROUNDUP FOR SOUTH DAKOTA
NATIONAL WEATHER SERVICE SIOUX FALLS SD
600 AM CST WED MAR 01 2017

NOTE: "FAIR" INDICATES FEW OR NO CLOUDS BELOW 12,000 FEET WITH NO
SIGNIFICANT WEATHER AND/OR OBSTRUCTIONS TO VISIBILITY.


SDZ001>005-009-010-012>017-011300-
NORTHWEST AND NORTH CENTRAL SOUTH DAKOTA

CITY           SKY/WX    TMP DP  RH WIND       PRES   REMARKS
BUFFALO          N/A     23  16  74 NW28G36   29.91R WCI   6
FAITH            N/A     25  23  92 NW22G31   29.96R WCI  10
MOBRIDGE       LGT SNOW  20  15  81 CALM      29.92R VSB 1
$$

SDZ012>016-024>037-041>051-057-063-072>074-011300-
SOUTHWEST AND SOUTH CENTRAL SOUTH DAKOTA

CITY           SKY/WX    TMP DP  RH WIND       PRES   REMARKS
RAPID CTY ARPT CLEAR     24  17  74 N14       29.99R WCI  12
PIERRE         PTCLDY    16  13  88 W6        29.97R WCI   7
CUSTER         CLEAR     17   7  64 W10G20    29.91R WCI   5
ELLSWORTH AFB  CLEAR     25  20  82 NW13      29.99R WCI  13
PHILIP         MOCLDY    25  22  88 W13       30.00R WCI  14
PINE RIDGE     CLOUDY    21  15  78 W7        30.03R WCI  12
SPEARFISH      CLOUDY    25  18  74 W16G23    29.99R WCI  12
WINNER         FAIR      21  18  88 W6        29.97R WCI  13
$$

SDZ004>011-016>023-039-040-011300-
NORTHEAST SOUTH DAKOTA

CITY           SKY/WX    TMP DP  RH WIND       PRES   REMARKS
ABERDEEN       CLOUDY    17  13  84 NW6       29.96R WCI   9
WATERTOWN      CLOUDY    20  17  88 NW15      29.89R WCI   6
BROOKINGS      FLURRIES  24  22  91 NW13      29.88R WCI  12
SISSETON         N/A     18  14  84 N15       29.92R WCI   4
$$

SDZ017-020-022-023-036>040-048>070-011300-
SOUTHEAST SOUTH DAKOTA

CITY           SKY/WX    TMP DP  RH WIND       PRES   REMARKS
SIOUX FALLS    LGT SNOW  28  26  92 NW17      29.89R VSB 1   WCI  16
HURON          CLEAR     14  12  92 NW10      29.96R WCI   1
CHAMBERLAIN    CLOUDY    28  26  93 NW13      29.98R WCI  17
MITCHELL       CLOUDY    25  23  92 NW16      29.97R WCI  12
YANKTON        CLOUDY    27  21  80 NW18      29.94R WCI  13
$$

ABBREVIATIONS USED IN REMARKS
   TC - TEMPERATURE IN CELSIUS
  WCI - WIND CHILL INDEX
   HX - HEAT INDEX
  VSB - VISIBILITY




USA.gov is the U.S. government's official web portal to all federal, state and local government web resources and services.